Weather History for Crystal River, FL

Change the Weather History Date:

Sunday, July 28, 2013

  Actual Average (KBKV) Record (KBKV)
Temperature  
Mean Temperature 81 °F -  
Max Temperature 89 °F 87 °F 97 °F (1996)
Min Temperature 73 °F 69 °F 66 °F (1996)
Cooling Degree Days 16    
Growing Degree Days 31 (Base 50)    
Moisture  
Dew Point 72 °F    
Average Humidity 81    
Maximum Humidity 100    
Minimum Humidity 55    
Precipitation  
Precipitation 0.05 in - - ()
Sea Level Pressure  
Sea Level Pressure 30.00 in    
Wind  
Wind Speed 1 mph (SSW)    
Max Wind Speed 10 mph    
Max Gust Speed 16 mph    
Visibility 9 miles    
Events Rain , Thunderstorm    
Averages and records for this station are not official NWS values.
T = Trace of Precipitation, MM = Missing Value Source: NWS Daily Summary

Daily Weather History Graph

Daily Weather History Graph

Search for Another Location

Airport:

Trip Planner

Search our weather history database for the weather conditions in past years. The results will help you decide how hot, cold, wet, or windy it might be!

Date:

Astronomy

Jul. 28, 2013 Rise Set
Actual Time 6:49 AM EDT 8:24 PM EDT
Civil Twilight 6:23 AM EDT 8:49 PM EDT
Nautical Twilight 5:52 AM EDT 9:20 PM EDT
Astronomical Twilight 5:20 AM EDT 9:52 PM EDT
Moon No Moon Rise 12:53 PM EDT (7/28)
Length of Visible Light 14h 26m
Length of Day
13h 34m
Waning Gibbous, 61% of the Moon is Illuminated
Jul 28
Waning Gibbous
Jul 29
Last Quarter
Aug 6
New
Aug 14
First Quarter
Aug 20
Full

Hourly Weather History & Observations

Time (EDT) Temp. Heat Index Dew Point Humidity Pressure Visibility Wind Dir Wind Speed Gust Speed Precip Events Conditions
12:15 AM 73.4 °F - 71.6 °F 94% 29.97 in 10.0 mi Calm Calm - N/A   Scattered Clouds
12:35 AM 75.2 °F - 71.6 °F 89% 29.97 in 10.0 mi Calm Calm - N/A   Scattered Clouds
12:55 AM 73.4 °F - 71.6 °F 94% 29.97 in 10.0 mi Calm Calm - N/A   Scattered Clouds
1:15 AM 73.4 °F - 71.6 °F 94% 29.97 in 10.0 mi Calm Calm - N/A   Scattered Clouds
1:35 AM 73.4 °F - 71.6 °F 94% 29.97 in 10.0 mi Calm Calm - N/A   Scattered Clouds
1:55 AM 73.4 °F - 71.6 °F 94% 29.97 in 10.0 mi Calm Calm - N/A   Clear
2:15 AM 73.4 °F - 71.6 °F 94% 29.96 in 10.0 mi Calm Calm - N/A   Clear
2:35 AM 73.4 °F - 71.6 °F 94% 29.96 in 10.0 mi Calm Calm - N/A   Clear
2:55 AM 73.4 °F - 71.6 °F 94% 29.96 in 10.0 mi Calm Calm - N/A   Clear
3:15 AM 73.4 °F - 71.6 °F 94% 29.95 in 10.0 mi SE 3.5 mph - N/A   Clear
3:35 AM 73.4 °F - 71.6 °F 94% 29.95 in 10.0 mi Calm Calm - N/A   Clear
3:55 AM 73.4 °F - 71.6 °F 94% 29.95 in 10.0 mi Calm Calm - N/A   Mostly Cloudy
4:15 AM 73.4 °F - 71.6 °F 94% 29.95 in 7.0 mi Calm Calm - N/A Rain Light Rain
4:35 AM 75.2 °F - 71.6 °F 89% 29.95 in 10.0 mi Calm Calm - N/A   Overcast
4:55 AM 75.2 °F - 71.6 °F 89% 29.96 in 10.0 mi Calm Calm - N/A   Overcast
5:15 AM 75.2 °F - 71.6 °F 89% 29.96 in 10.0 mi Calm Calm - N/A   Mostly Cloudy
5:35 AM 75.2 °F - 71.6 °F 89% 29.96 in 10.0 mi SE 3.5 mph - N/A   Scattered Clouds
5:55 AM 75.2 °F - 71.6 °F 89% 29.97 in 10.0 mi Calm Calm - N/A   Scattered Clouds
6:15 AM 75.2 °F - 71.6 °F 89% 29.97 in 7.0 mi Calm Calm - 0.01 in Rain Heavy Rain
6:35 AM 75.2 °F - 71.6 °F 89% 29.97 in 5.0 mi Calm Calm - 0.04 in Rain Rain
6:55 AM 73.4 °F - 71.6 °F 94% 29.98 in 4.0 mi Calm Calm - 0.05 in Rain Light Rain
7:15 AM 73.4 °F - 71.6 °F 94% 29.98 in 4.0 mi Calm Calm - N/A Thunderstorm Scattered Clouds
7:35 AM 73.4 °F - 73.4 °F 100% 29.98 in 3.0 mi Calm Calm - N/A   Scattered Clouds
7:55 AM 73.4 °F - 73.4 °F 100% 29.99 in 3.0 mi Calm Calm - N/A   Clear
8:15 AM 75.2 °F - 73.4 °F 94% 30.00 in 7.0 mi Calm Calm - N/A   Clear
8:35 AM 77.0 °F - 73.4 °F 89% 30.00 in 7.0 mi Calm Calm - N/A   Clear
8:55 AM 77.0 °F - 75.2 °F 94% 30.01 in 7.0 mi Calm Calm - N/A   Clear
9:15 AM 77.0 °F - 75.2 °F 94% 30.01 in 7.0 mi Calm Calm - N/A   Clear
9:35 AM 78.8 °F - 77.0 °F 94% 30.01 in 10.0 mi Calm Calm - N/A   Clear
9:55 AM 80.6 °F 87.1 °F 77.0 °F 89% 30.01 in 10.0 mi Calm Calm - N/A   Scattered Clouds
10:15 AM 80.6 °F 87.1 °F 77.0 °F 89% 30.01 in 10.0 mi Calm Calm - N/A   Clear
10:35 AM 80.6 °F 87.1 °F 77.0 °F 89% 30.01 in 10.0 mi Calm Calm - N/A   Clear
10:55 AM 82.4 °F 90.9 °F 77.0 °F 84% 30.01 in 10.0 mi Calm Calm - N/A   Clear
11:15 AM 82.4 °F 90.9 °F 77.0 °F 84% 30.02 in 10.0 mi Calm Calm - N/A   Clear
11:35 AM 82.4 °F 87.2 °F 71.6 °F 70% 30.02 in 10.0 mi Calm Calm - N/A   Clear
11:55 AM 84.2 °F 90.9 °F 73.4 °F 70% 30.02 in 10.0 mi Calm Calm - N/A   Clear
12:15 PM 86.0 °F 93.4 °F 73.4 °F 66% 30.02 in 10.0 mi Calm Calm - N/A   Clear
12:35 PM 86.0 °F 93.4 °F 73.4 °F 66% 30.02 in 10.0 mi SW 3.5 mph - N/A   Mostly Cloudy
12:55 PM 86.0 °F 93.4 °F 73.4 °F 66% 30.02 in 10.0 mi WSW 6.9 mph - N/A   Scattered Clouds
1:15 PM 87.8 °F 95.6 °F 73.4 °F 62% 30.01 in 10.0 mi SSW 3.5 mph - N/A   Clear
1:35 PM 87.8 °F 95.6 °F 73.4 °F 62% 30.01 in 10.0 mi SW 5.8 mph - N/A   Mostly Cloudy
1:55 PM 87.8 °F 95.6 °F 73.4 °F 62% 30.01 in 10.0 mi WSW 10.4 mph - N/A   Mostly Cloudy
2:15 PM 87.8 °F 95.6 °F 73.4 °F 62% 30.01 in 10.0 mi West 8.1 mph - N/A Thunderstorm Overcast
2:35 PM 87.8 °F 93.8 °F 71.6 °F 58% 30.01 in 10.0 mi WSW 10.4 mph - N/A Thunderstorm Mostly Cloudy
2:55 PM 89.6 °F 98.2 °F 73.4 °F 59% 30.01 in 10.0 mi West 9.2 mph - N/A   Scattered Clouds
3:15 PM 87.8 °F 95.6 °F 73.4 °F 62% 30.01 in 10.0 mi West 8.1 mph 16.1 mph N/A Thunderstorm Scattered Clouds
3:35 PM 89.6 °F 96.2 °F 71.6 °F 55% 30.01 in 10.0 mi West 4.6 mph - N/A   Scattered Clouds
3:55 PM 87.8 °F 92.6 °F 69.8 °F 55% 30.01 in 10.0 mi East 9.2 mph - N/A   Scattered Clouds
4:15 PM 80.6 °F 83.2 °F 68.0 °F 65% 30.01 in 10.0 mi East 9.2 mph - N/A Thunderstorm Mostly Cloudy
4:35 PM 80.6 °F 83.2 °F 68.0 °F 65% 30.02 in 10.0 mi East 4.6 mph - N/A   Overcast
4:55 PM 80.6 °F 83.9 °F 69.8 °F 70% 30.02 in 10.0 mi Calm Calm - N/A Thunderstorm Overcast
5:15 PM 80.6 °F 83.9 °F 69.8 °F 70% 30.02 in 10.0 mi NE 4.6 mph - N/A   Mostly Cloudy
5:35 PM 82.4 °F 86.3 °F 69.8 °F 66% 30.02 in 10.0 mi Calm Calm - N/A   Clear
5:55 PM 86.0 °F 91.8 °F 71.6 °F 62% 30.02 in 10.0 mi East 5.8 mph - N/A Thunderstorm Clear
6:15 PM 86.0 °F 91.8 °F 71.6 °F 62% 30.02 in 10.0 mi SSE 4.6 mph - N/A   Scattered Clouds
6:35 PM 80.6 °F 83.9 °F 69.8 °F 70% 30.03 in 10.0 mi SE 4.6 mph - N/A   Mostly Cloudy
6:55 PM 78.8 °F - 69.8 °F 74% 30.03 in 10.0 mi Calm Calm - N/A   Scattered Clouds
7:15 PM 78.8 °F - 71.6 °F 78% 30.02 in 10.0 mi Calm Calm - N/A   Clear
7:35 PM 80.6 °F 84.6 °F 71.6 °F 74% 30.02 in 10.0 mi Calm Calm - N/A   Clear
7:55 PM 80.6 °F 84.6 °F 71.6 °F 74% 30.03 in 10.0 mi Calm Calm - N/A   Clear
8:15 PM 78.8 °F - 71.6 °F 78% 30.04 in 10.0 mi Calm Calm - N/A   Scattered Clouds
8:35 PM 78.8 °F - 71.6 °F 78% 30.04 in 10.0 mi Calm Calm - N/A   Scattered Clouds
8:55 PM 77.0 °F - 71.6 °F 83% 30.04 in 10.0 mi Calm Calm - N/A   Clear
9:15 PM 77.0 °F - 71.6 °F 83% 30.05 in 10.0 mi Calm Calm - N/A   Scattered Clouds
9:35 PM 77.0 °F - 71.6 °F 83% 30.05 in 10.0 mi Calm Calm - N/A   Clear
9:55 PM 77.0 °F - 71.6 °F 83% 30.06 in 10.0 mi Calm Calm - N/A   Clear
10:15 PM 77.0 °F - 71.6 °F 83% 30.06 in 10.0 mi Calm Calm - N/A   Clear
10:35 PM 75.2 °F - 71.6 °F 89% 30.06 in 10.0 mi Calm Calm - N/A   Clear
10:55 PM 75.2 °F - 71.6 °F 89% 30.06 in 10.0 mi Calm Calm - N/A   Clear
11:15 PM 73.4 °F - 71.6 °F 94% 30.06 in 10.0 mi Calm Calm - N/A   Clear
11:35 PM 73.4 °F - 71.6 °F 94% 30.06 in 10.0 mi Calm Calm - N/A   Clear
11:55 PM 73.4 °F - 71.6 °F 94% 30.07 in 10.0 mi Calm Calm - N/A   Clear